Regional Weather Roundup
Issued by NWS

Home | Current Version | Previous Version | Graphics & Text | Print | Product List | Glossary On
Versions: 1 2 3 4 5 6 7 8 9 10 11 12 13 14 15 16 17 18 19 20 21 22 23 24 25 26 27 28 29 30 31 32 33 34 35 36 37 38 39 40 41 42 43 44 45 46 47 48 49 50
000
ASUS44 KMEG 051510
RWRTN
TENNESSEE HOURLY STATE WEATHER ROUNDUP
NATIONAL WEATHER SERVICE MEMPHIS TN
1000 AM CDT SAT SEP 05 2015

TNZ002-004-019-021-049-052-054-088>092-051600-
WEST TENNESSEE

CITY           SKY/WX    TMP DP  RH WIND       PRES   REMARKS
MEMPHIS INTL   SUNNY     88  69  53 SE5       30.08S HX  92
NWS MEMPHIS      N/A     87 N/A N/A MISG        N/A
JACKSON        SUNNY     84  72  67 E6        30.10R
DYERSBURG      SUNNY     84  73  70 CALM      30.09F HX  91
UNION CITY     SUNNY     84  73  70 E3        30.09S HX  91
PARIS          SUNNY     84  66  54 SE5       30.11R
LEXINGTON      SUNNY     84  72  65 CALM      30.09S
$$

TNZ008-025-027-028-033-062-065-066-051600-
NORTH MIDDLE TENNESSEE

CITY           SKY/WX    TMP DP  RH WIND       PRES   REMARKS
NASHVILLE      SUNNY     85  67  54 E5        30.12R
CLARKSVILLE    SUNNY     83  69  62 VRB3      30.12R
SMYRNA         SUNNY     32  32 100 VRB3      30.12S
COOKEVILLE     SUNNY     82  72  69 S8        30.14R
CROSSVILLE     SUNNY     80  66  62 VRB6      30.20R
$$

TNZ061-075-076-078-094-096-097-051600-
SOUTH MIDDLE TENNESSEE

CITY           SKY/WX    TMP DP  RH WIND       PRES   REMARKS
FAYETTEVILLE   SUNNY     79  68  69 CALM      30.13R
TULLAHOMA      SUNNY     81  66  61 SE7       30.15S
WINCHESTER     SUNNY     81  70  69 SE9       30.14R
MCMINNVILLE    SUNNY     82  72  69 VRB5      30.15S
COLUMBIA       SUNNY     84  75  74 VRB5      30.10S HX  92
SHELBYVILLE    SUNNY     84  72  65 SE8       30.13S
$$

TNZ017-018-042-046-047-051600-
NORTHEAST TENNESSEE

CITY           SKY/WX    TMP DP  RH WIND       PRES   REMARKS
TRI CITIES     MOSUNNY   79  64  60 E6        30.21S
ELIZABETHTON   SUNNY     75  64  69 E9        30.22S
$$

TNZ012-013-036-069-073-074-051600-
CENTRAL EAST TENNESSEE

CITY           SKY/WX    TMP DP  RH WIND       PRES   REMARKS
KNOXVILLE      SUNNY     79  63  57 E3        30.15S
OAK RIDGE      SUNNY     81  66  60 VRB5      30.17R
GATLINBURG     SUNNY     79  63  57 VRB3      30.15S
MORRISTOWN     SUNNY     79  64  61 E7        30.19R
$$

TNZ083-085-099-051600-
SOUTHEAST TENNESSEE

CITY           SKY/WX    TMP DP  RH WIND       PRES   REMARKS
CHATTANOOGA    SUNNY     80  66  62 VRB3      30.15R
$$

SKY/WX REPORTED AS FAIR MEANS FEW OR NO CLOUDS BELOW
12 THOUSAND FEET.




USA.gov is the U.S. government's official web portal to all federal, state and local government web resources and services.